Home   Weather   Staplefield   Past weeks
Flag for United Kingdom

Past Weather in Staplefield, England, United Kingdom — Yesterday and Last 2 Weeks

Currently: 61 °F. Partly sunny. (Weather station: London / Gatwick Airport, United Kingdom). See more current weather

Past Weather in Staplefield — Graph

°F

Staplefield Temperature Yesterday

Maximum temperature yesterday: 64 °F (at 11:20 am)
Minimum temperature yesterday: 55 °F (at 2:50 am)
Average temperature yesterday: 60 °F

High & Low Weather Summary for the Past Weeks

 TemperatureHumidityPressure
High82 °F (Sep 7, 1:50 pm)100% (Sep 6, 5:20 am)30.24 "Hg (Sep 6, 5:20 am)
Low48 °F (Sep 16, 4:20 am)37% (Sep 7, 4:20 pm)29.77 "Hg (Sep 9, 2:20 pm)
Average64 °F81%29.99 "Hg
* Reported Sep 5 12:20 pm — Sep 20 12:50 pm, Staplefield. Weather by CustomWeather, © 2021

Note: Actual official high and low records may vary slightly from our data, if they occured in-between our weather recording intervals... More about our weather records

Staplefield Weather History for the Previous 24 Hours

Scroll right to see more
 ConditionsComfort  
Time TempWeatherWind HumidityBarometerVisibility
12:50 pm
Mon, Sep 20
61 °FPartly sunny.9 mph83%30.21 "HgN/A
12:20 pm61 °FPartly sunny.10 mph83%30.18 "HgN/A
11:50 am61 °FBroken clouds.13 mph83%30.18 "HgN/A
11:20 am59 °FOvercast.13 mph82%30.18 "HgN/A
10:50 am59 °FBroken clouds.9 mph82%30.18 "HgN/A
10:20 am57 °FBroken clouds.12 mph88%30.18 "HgN/A
9:50 am57 °FLow clouds.8 mph82%30.18 "HgN/A
9:20 am55 °FLow clouds.9 mph88%30.18 "HgN/A
8:50 am55 °FPartly sunny.9 mph88%30.15 "HgN/A
8:20 am55 °FPartly sunny.9 mph88%30.15 "HgN/A
7:50 am54 °FPartly sunny.7 mph88%30.15 "HgN/A
7:20 am54 °FPassing clouds.8 mph88%30.12 "HgN/A
6:50 am54 °FSunny.7 mph88%30.12 "Hg10 mi
6:20 am54 °FClear.8 mph88%30.12 "Hg10 mi
5:50 am54 °FClear.9 mph88%30.09 "Hg10 mi
5:20 am54 °FClear.8 mph88%30.09 "Hg10 mi
4:50 am55 °FClear.6 mph88%30.09 "Hg10 mi
4:20 am55 °FClear.5 mph88%30.09 "Hg10 mi
3:50 am55 °FClear.5 mph88%30.09 "Hg10 mi
3:20 am55 °FClear.6 mph88%30.09 "Hg10 mi
2:50 am55 °FClear.8 mph88%30.07 "Hg10 mi
2:20 am55 °FClear.8 mph94%30.07 "Hg10 mi
1:50 am55 °FClear.6 mph94%30.07 "Hg10 mi
1:20 am57 °FClear.9 mph88%30.07 "Hg10 mi
12:20 am57 °FPassing clouds.6 mph94%30.07 "HgN/A
11:50 pm
Sun, Sep 19
59 °FPassing clouds.8 mph88%30.07 "HgN/A
11:20 pm59 °FPassing clouds.7 mph88%30.04 "HgN/A
10:50 pm61 °FPassing clouds.5 mph88%30.04 "HgN/A
10:20 pm61 °FPassing clouds.2 mph88%30.04 "HgN/A
9:50 pm59 °FPassing clouds.3 mph94%30.04 "HgN/A
9:20 pm59 °FPassing clouds.6 mph94%30.04 "HgN/A
8:50 pm61 °FPassing clouds.3 mph88%30.01 "Hg6 mi
8:20 pm61 °FPassing clouds.5 mph94%30.01 "HgN/A
7:50 pm63 °FPassing clouds.5 mph88%30.01 "HgN/A
7:20 pm63 °FPassing clouds.3 mph88%29.98 "HgN/A
6:50 pm63 °FScattered clouds.3 mph88%29.98 "HgN/A
6:20 pm63 °FPartly sunny.5 mph88%29.98 "HgN/A
5:50 pm63 °FPartly sunny.5 mph88%29.98 "HgN/A
5:20 pm63 °FPartly sunny.5 mph88%29.98 "HgN/A
4:50 pm63 °FLight rain. Partly sunny.8 mph88%29.98 "HgN/A
4:20 pm64 °FScattered clouds.5 mph88%29.98 "HgN/A
3:50 pm64 °FBroken clouds.5 mph88%29.98 "HgN/A
3:20 pm63 °FLight rain. Scattered clouds.5 mph94%29.95 "HgN/A
2:50 pm61 °FLight rain. Passing clouds.7 mph94%29.95 "Hg4 mi
2:20 pm61 °FLight rain. Passing clouds.7 mph94%29.98 "Hg6 mi
1:50 pm63 °FLight rain. Passing clouds.5 mph88%29.98 "HgN/A
1:20 pm64 °FPassing clouds.8 mph83%29.98 "HgN/A
Weather by CustomWeather, © 2021

See weather overview